Year,Month,Day,Hour,Minute,Value (Times are PST for temperature in C)
2006,08,15,00,00,14.10
2006,08,15,00,01,14.20
2006,08,15,00,02,14.20
2006,08,15,00,03,14.20
2006,08,15,00,04,14.20
2006,08,15,00,05,14.20
2006,08,15,00,06,14.20
2006,08,15,00,07,14.20
2006,08,15,00,08,14.20
2006,08,15,00,09,14.20
2006,08,15,00,10,14.30
2006,08,15,00,11,14.30
2006,08,15,00,12,14.30
2006,08,15,00,13,14.40
2006,08,15,00,14,14.40
2006,08,15,00,15,14.50
2006,08,15,00,16,14.50
2006,08,15,03,02,14.10
2006,08,15,03,03,14.10
2006,08,15,03,04,14.10
2006,08,15,03,05,14.10
2006,08,15,03,06,14.10
2006,08,15,03,07,14.10
2006,08,15,03,08,14.10
2006,08,15,03,09,14.00
2006,08,15,03,10,14.00
2006,08,15,03,11,14.00
2006,08,15,03,12,14.00
2006,08,15,03,13,14.00
2006,08,15,03,14,14.00
2006,08,15,03,15,14.00
2006,08,15,03,16,14.00
2006,08,15,03,17,14.00
2006,08,15,03,18,14.00
2006,08,15,03,19,14.00
2006,08,15,03,20,14.00
2006,08,15,03,21,14.00
2006,08,15,03,22,13.90
2006,08,15,03,23,13.90
2006,08,15,03,24,13.90
2006,08,15,03,25,13.90
2006,08,15,03,26,13.80
2006,08,15,03,27,13.80
2006,08,15,03,28,13.70
2006,08,15,03,29,13.70
2006,08,15,03,30,13.60
2006,08,15,03,31,13.60
2006,08,15,03,32,13.50
2006,08,15,03,33,13.50
2006,08,15,03,34,13.50
2006,08,15,03,35,13.50
2006,08,15,03,36,13.50
2006,08,15,03,37,13.50
2006,08,15,03,38,13.50
2006,08,15,03,39,13.60
2006,08,15,03,40,13.70
2006,08,15,03,41,13.70
2006,08,15,03,42,13.70
2006,08,15,03,43,13.80
2006,08,15,03,44,13.80
2006,08,15,03,45,13.80
2006,08,15,03,46,13.80
2006,08,15,03,47,13.80
2006,08,15,03,48,13.80
2006,08,15,03,49,13.70
2006,08,15,03,50,13.70
2006,08,15,03,51,13.70
2006,08,15,03,52,13.70
2006,08,15,03,53,13.70
2006,08,15,03,54,13.70
2006,08,15,03,55,13.80
2006,08,15,03,56,13.80
2006,08,15,03,57,13.80
2006,08,15,03,58,13.90
2006,08,15,03,59,13.90
2006,08,15,04,00,13.90
2006,08,15,04,01,14.00
2006,08,15,04,02,14.00
2006,08,15,04,03,14.00
2006,08,15,04,04,14.00
2006,08,15,04,05,14.00
2006,08,15,04,06,14.00
2006,08,15,04,07,14.00
2006,08,15,04,08,14.00
2006,08,15,04,09,14.00
2006,08,15,04,10,14.00
2006,08,15,04,11,14.10
2006,08,15,04,12,14.20
2006,08,15,04,13,14.20
2006,08,15,04,14,14.40
2006,08,15,04,15,14.50
2006,08,15,04,16,14.50
2006,08,15,04,17,14.50
2006,08,15,04,18,14.50
2006,08,15,04,19,14.50
2006,08,15,04,20,14.50
2006,08,15,04,21,14.50
2006,08,15,04,22,14.40
2006,08,15,04,23,14.40
2006,08,15,04,24,14.40
2006,08,15,04,25,14.40
2006,08,15,04,26,14.40
2006,08,15,04,27,14.40
2006,08,15,04,28,14.40
2006,08,15,04,29,14.40
2006,08,15,04,30,14.40
2006,08,15,04,31,14.40
2006,08,15,04,32,14.30
2006,08,15,04,33,14.30
2006,08,15,04,34,14.30
2006,08,15,04,35,14.40
2006,08,15,04,36,14.40
2006,08,15,04,37,14.40
2006,08,15,04,38,14.40
2006,08,15,04,39,14.30
2006,08,15,04,40,14.20
2006,08,15,04,41,14.20
2006,08,15,04,42,14.20
2006,08,15,04,43,14.10
2006,08,15,04,44,14.10
2006,08,15,04,45,14.00
2006,08,15,04,46,14.00
2006,08,15,04,47,13.90
2006,08,15,04,48,13.90
2006,08,15,04,49,13.80
2006,08,15,04,50,13.70
2006,08,15,04,51,13.60
2006,08,15,04,52,13.50
2006,08,15,04,53,13.30
2006,08,15,04,54,13.20
2006,08,15,04,55,13.00
2006,08,15,04,56,12.90
2006,08,15,04,57,12.80
2006,08,15,04,58,12.80
2006,08,15,04,59,12.70
2006,08,15,05,00,12.70
2006,08,15,05,01,12.60
2006,08,15,05,02,12.60
2006,08,15,05,03,12.50
2006,08,15,05,04,12.50
2006,08,15,05,05,12.50
2006,08,15,05,06,12.40
2006,08,15,05,07,12.40
2006,08,15,05,08,12.40
2006,08,15,05,09,12.30
2006,08,15,05,10,12.30
2006,08,15,05,11,12.30
2006,08,15,05,12,12.30
2006,08,15,05,13,12.20
2006,08,15,05,14,12.20
2006,08,15,05,15,12.20
2006,08,15,05,16,12.10
2006,08,15,05,17,12.10
2006,08,15,05,18,12.10
2006,08,15,05,19,12.00
2006,08,15,05,20,12.00
2006,08,15,05,21,11.90
2006,08,15,05,22,11.90
2006,08,15,05,23,11.90
2006,08,15,05,24,11.80
2006,08,15,05,25,11.80
2006,08,15,05,26,11.80
2006,08,15,05,27,11.80
2006,08,15,05,28,11.70
2006,08,15,05,29,11.70
2006,08,15,05,30,11.60
2006,08,15,05,31,11.60
2006,08,15,05,32,11.60
2006,08,15,05,33,11.60
2006,08,15,05,34,11.60
2006,08,15,05,35,11.60
2006,08,15,05,36,11.60
2006,08,15,05,37,11.50
2006,08,15,05,38,11.40
2006,08,15,05,39,11.40
2006,08,15,05,40,11.40
2006,08,15,05,41,11.40
2006,08,15,05,42,11.40
2006,08,15,05,43,11.40
2006,08,15,05,44,11.40
2006,08,15,05,45,11.40
2006,08,15,05,46,11.40
2006,08,15,05,47,11.40
2006,08,15,05,48,11.40
2006,08,15,05,49,11.30
2006,08,15,05,50,11.30
2006,08,15,05,51,11.30
2006,08,15,05,52,11.30
2006,08,15,05,53,11.30
2006,08,15,05,54,11.20
2006,08,15,05,55,11.20
2006,08,15,05,56,11.20
2006,08,15,05,57,11.20
2006,08,15,05,58,11.20
2006,08,15,05,59,11.10
2006,08,15,06,00,11.10
2006,08,15,06,01,11.10
2006,08,15,06,02,11.10
2006,08,15,06,03,11.10
2006,08,15,06,04,11.10
2006,08,15,06,05,11.10
2006,08,15,06,06,11.10
2006,08,15,06,07,11.10
2006,08,15,06,08,11.10
2006,08,15,06,09,11.10
2006,08,15,06,10,11.10
2006,08,15,06,11,11.00
2006,08,15,06,12,10.90
2006,08,15,06,13,10.90
2006,08,15,06,14,10.90
2006,08,15,06,15,10.90
2006,08,15,06,16,10.90
2006,08,15,06,17,10.90
2006,08,15,06,18,10.90
2006,08,15,06,19,10.90
2006,08,15,06,20,10.90
2006,08,15,06,21,10.90
2006,08,15,06,22,10.90
2006,08,15,06,23,10.90
2006,08,15,06,24,10.90
2006,08,15,06,25,10.90
2006,08,15,06,26,10.90
2006,08,15,06,27,10.90
2006,08,15,06,28,10.90
2006,08,15,06,29,10.90
2006,08,15,06,30,10.90
2006,08,15,06,31,10.90
2006,08,15,06,32,10.90
2006,08,15,06,33,10.90
2006,08,15,06,34,10.90
2006,08,15,06,35,10.90
2006,08,15,06,36,10.90
2006,08,15,06,37,10.90
2006,08,15,06,38,10.90
2006,08,15,06,39,10.90
2006,08,15,06,40,10.90
2006,08,15,06,41,11.10
2006,08,15,06,42,11.10
2006,08,15,06,43,11.10
2006,08,15,06,44,11.10
2006,08,15,06,45,11.20
2006,08,15,06,46,11.20
2006,08,15,06,47,11.20
2006,08,15,06,48,11.30
2006,08,15,06,49,11.30
2006,08,15,06,50,11.30
2006,08,15,06,51,11.40
2006,08,15,06,52,11.40
2006,08,15,06,53,11.50
2006,08,15,06,54,11.60
2006,08,15,06,55,11.70
2006,08,15,06,56,11.80
2006,08,15,06,57,11.90
2006,08,15,06,58,12.00
2006,08,15,06,59,12.10
2006,08,15,07,00,12.20
2006,08,15,07,01,12.30
2006,08,15,07,02,12.30
2006,08,15,07,03,12.40
2006,08,15,07,04,12.50
2006,08,15,07,05,12.60
2006,08,15,07,06,12.60
2006,08,15,07,07,12.70
2006,08,15,07,08,12.80
2006,08,15,07,09,12.80
2006,08,15,07,10,12.90
2006,08,15,07,11,12.90
2006,08,15,07,12,13.00
2006,08,15,07,13,13.00
2006,08,15,07,14,13.00
2006,08,15,07,15,13.00
2006,08,15,07,16,13.10
2006,08,15,07,17,13.10
2006,08,15,07,18,13.20
2006,08,15,07,19,13.20
2006,08,15,07,20,13.30
2006,08,15,07,21,13.40
2006,08,15,07,22,13.50
2006,08,15,07,23,13.50
2006,08,15,07,24,13.50
2006,08,15,07,25,13.50
2006,08,15,07,26,13.50
2006,08,15,07,27,13.50
2006,08,15,07,28,13.50
2006,08,15,07,29,13.50
2006,08,15,07,30,13.60
2006,08,15,07,31,13.60
2006,08,15,07,32,13.70
2006,08,15,07,33,13.70
2006,08,15,07,34,13.70
2006,08,15,07,35,13.80
2006,08,15,07,36,13.90
2006,08,15,07,37,14.00
2006,08,15,07,38,14.00
2006,08,15,07,39,14.10
2006,08,15,07,40,14.10
2006,08,15,07,41,14.20
2006,08,15,07,42,14.20
2006,08,15,07,43,14.20
2006,08,15,07,44,14.30
2006,08,15,07,45,14.30
2006,08,15,07,46,14.40
2006,08,15,07,47,14.50
2006,08,15,07,48,14.50
2006,08,15,07,49,14.60
2006,08,15,07,50,14.60
2006,08,15,07,51,14.70
2006,08,15,07,52,14.70
2006,08,15,07,53,14.80
2006,08,15,07,54,14.80
2006,08,15,07,55,14.80
2006,08,15,07,56,14.70
2006,08,15,07,57,14.60
2006,08,15,07,58,14.50
2006,08,15,07,59,14.40
2006,08,15,08,00,14.30
2006,08,15,08,01,14.20
2006,08,15,08,02,14.20
2006,08,15,08,03,14.20
2006,08,15,08,04,14.10
2006,08,15,08,05,14.00
2006,08,15,08,06,13.90
2006,08,15,08,07,13.90
2006,08,15,08,08,13.80
2006,08,15,08,09,13.80
2006,08,15,08,10,13.80
2006,08,15,08,11,13.80
2006,08,15,08,12,13.80
2006,08,15,08,13,13.80
2006,08,15,08,14,13.80
2006,08,15,08,15,13.80
2006,08,15,08,16,13.90
2006,08,15,08,17,13.90
2006,08,15,08,18,14.00
2006,08,15,08,19,14.10
2006,08,15,08,20,14.20
2006,08,15,08,21,14.20
2006,08,15,08,22,14.30
2006,08,15,08,23,14.40
2006,08,15,08,24,14.40
2006,08,15,08,25,14.50
2006,08,15,08,26,14.50
2006,08,15,08,27,14.60
2006,08,15,08,28,14.60
2006,08,15,08,29,14.70
2006,08,15,08,30,14.70
2006,08,15,08,31,14.80
2006,08,15,08,32,14.80
2006,08,15,08,33,14.80
2006,08,15,08,34,14.80
2006,08,15,08,35,14.80
2006,08,15,08,36,14.60
2006,08,15,08,37,14.60
2006,08,15,08,38,14.60
2006,08,15,08,39,14.50
2006,08,15,08,40,14.50
2006,08,15,08,41,14.40
2006,08,15,08,42,14.20
2006,08,15,08,43,14.20
2006,08,15,08,44,14.10
2006,08,15,08,45,14.10
2006,08,15,08,46,14.10
2006,08,15,08,47,14.10
2006,08,15,08,48,14.20
2006,08,15,08,49,14.30
2006,08,15,08,50,14.30
2006,08,15,08,51,14.30
2006,08,15,08,52,14.20
2006,08,15,08,53,14.20
2006,08,15,08,54,14.20
2006,08,15,08,55,14.20
2006,08,15,08,56,14.30
2006,08,15,08,57,14.20
2006,08,15,08,58,14.10
2006,08,15,08,59,14.10
2006,08,15,09,00,14.20
2006,08,15,09,01,14.20
2006,08,15,09,02,14.20
2006,08,15,09,03,14.30
2006,08,15,09,04,14.40
2006,08,15,09,05,14.40
2006,08,15,09,06,14.40
2006,08,15,09,07,14.40
2006,08,15,09,08,14.50
2006,08,15,09,09,14.60
2006,08,15,09,10,14.60
2006,08,15,09,11,14.60
2006,08,15,09,12,14.60
2006,08,15,09,13,14.70
2006,08,15,09,14,14.80
2006,08,15,09,15,14.80
2006,08,15,09,16,14.80
2006,08,15,09,17,14.80
2006,08,15,09,18,14.80
2006,08,15,09,19,14.80
2006,08,15,09,20,14.80
2006,08,15,09,21,14.80
2006,08,15,09,22,14.80
2006,08,15,09,23,14.80
2006,08,15,09,24,14.80
2006,08,15,09,25,14.90
2006,08,15,09,26,14.90
2006,08,15,09,27,14.90
2006,08,15,09,28,14.90
2006,08,15,09,29,14.80
2006,08,15,09,30,14.80
2006,08,15,09,31,14.80
2006,08,15,09,32,14.70
2006,08,15,09,33,14.60
2006,08,15,09,34,14.50
2006,08,15,09,35,14.40
2006,08,15,09,36,14.40
2006,08,15,09,37,14.30
2006,08,15,09,38,14.20
2006,08,15,09,39,14.20
2006,08,15,09,40,14.20
2006,08,15,09,41,14.10
2006,08,15,09,42,14.00
2006,08,15,09,43,14.00
2006,08,15,09,44,14.00
2006,08,15,09,45,14.00
2006,08,15,09,46,14.10
2006,08,15,09,47,14.10
2006,08,15,09,48,14.20
2006,08,15,09,49,14.20
2006,08,15,09,50,14.20
2006,08,15,09,51,14.30
2006,08,15,09,52,14.40
2006,08,15,09,53,14.40
2006,08,15,09,54,14.30
2006,08,15,09,55,14.40
2006,08,15,09,56,14.40
2006,08,15,09,57,14.20
2006,08,15,09,58,14.20
2006,08,15,09,59,14.20
2006,08,15,10,00,14.20
2006,08,15,10,01,14.20
2006,08,15,10,02,14.20
2006,08,15,10,03,14.10
2006,08,15,10,04,13.90
2006,08,15,10,05,13.70
2006,08,15,10,06,13.70
2006,08,15,10,07,13.70
2006,08,15,10,08,13.70
2006,08,15,10,09,13.70
2006,08,15,10,10,13.70
2006,08,15,10,11,13.70
2006,08,15,10,12,13.60
2006,08,15,10,13,13.50
2006,08,15,10,14,13.40
2006,08,15,10,15,13.40
2006,08,15,10,16,13.40
2006,08,15,10,17,13.50
2006,08,15,10,18,13.50
2006,08,15,10,19,13.60
2006,08,15,10,20,13.70
2006,08,15,10,21,13.80
2006,08,15,10,22,13.80
2006,08,15,10,23,13.90
2006,08,15,10,24,13.90
2006,08,15,10,25,14.00
2006,08,15,10,26,13.90
2006,08,15,10,27,13.90
2006,08,15,10,28,13.90
2006,08,15,10,29,13.90
2006,08,15,10,30,13.90
2006,08,15,10,31,14.00
2006,08,15,10,32,14.10
2006,08,15,10,33,14.10
2006,08,15,10,34,14.20
2006,08,15,10,35,14.00
2006,08,15,10,36,13.90
2006,08,15,10,37,13.80
2006,08,15,10,38,13.70
2006,08,15,10,39,13.70
2006,08,15,10,40,13.70
2006,08,15,10,41,13.60
2006,08,15,10,42,13.50
2006,08,15,10,43,13.60
2006,08,15,10,44,13.60
2006,08,15,10,45,13.60
2006,08,15,10,46,13.60
2006,08,15,10,47,13.50
2006,08,15,10,48,13.30
2006,08,15,10,49,13.20
2006,08,15,10,50,13.10
2006,08,15,10,51,12.90
2006,08,15,10,52,12.80
2006,08,15,10,53,12.80
2006,08,15,10,54,12.90
2006,08,15,10,55,13.00
2006,08,15,10,56,13.00
2006,08,15,10,57,13.00
2006,08,15,10,58,13.10
2006,08,15,10,59,13.20
2006,08,15,11,00,13.30
2006,08,15,11,01,13.30
2006,08,15,11,02,13.40
2006,08,15,11,03,13.50
2006,08,15,11,04,13.50
2006,08,15,11,05,13.60
2006,08,15,11,06,13.60
2006,08,15,11,07,13.60
2006,08,15,11,08,13.60
2006,08,15,11,09,13.60
2006,08,15,11,10,13.70
2006,08,15,11,11,13.70
2006,08,15,11,12,13.70
2006,08,15,11,13,13.70
2006,08,15,11,14,13.70
2006,08,15,11,15,13.80
2006,08,15,11,16,13.90
2006,08,15,11,17,14.00
2006,08,15,11,18,14.10
2006,08,15,11,19,14.20
2006,08,15,11,20,14.20
2006,08,15,11,21,14.20
2006,08,15,11,22,14.00
2006,08,15,11,23,13.80
2006,08,15,11,24,13.60
2006,08,15,11,25,13.50
2006,08,15,11,26,13.50
2006,08,15,11,27,13.50
2006,08,15,11,28,13.60
2006,08,15,11,29,13.70
2006,08,15,11,30,13.70
2006,08,15,11,31,13.80
2006,08,15,11,32,13.80
2006,08,15,11,33,13.80
2006,08,15,11,34,13.60
2006,08,15,11,35,13.50
2006,08,15,11,36,13.50
2006,08,15,11,37,13.50
2006,08,15,11,38,13.40
2006,08,15,11,39,13.40
2006,08,15,11,40,13.40
2006,08,15,11,41,13.40
2006,08,15,11,42,13.40
2006,08,15,11,43,13.30
2006,08,15,11,44,13.50
2006,08,15,11,45,13.60
2006,08,15,11,46,13.60
2006,08,15,11,47,13.50
2006,08,15,11,48,13.60
2006,08,15,11,49,13.60
2006,08,15,11,50,13.70
2006,08,15,11,51,13.70
2006,08,15,11,52,13.80
2006,08,15,11,53,13.70
2006,08,15,11,54,13.70
2006,08,15,11,55,13.70
2006,08,15,11,56,13.70
2006,08,15,11,57,13.70
2006,08,15,11,58,13.70
2006,08,15,11,59,13.70
2006,08,15,12,00,13.70
2006,08,15,12,01,13.70
2006,08,15,12,02,13.60
2006,08,15,12,03,13.40
2006,08,15,12,04,13.40
2006,08,15,12,05,13.50
2006,08,15,12,06,13.50
2006,08,15,12,07,13.50
2006,08,15,12,08,13.50
2006,08,15,12,09,13.50
2006,08,15,12,10,13.60
2006,08,15,12,11,13.60
2006,08,15,12,12,13.60
2006,08,15,12,13,13.70
2006,08,15,12,14,13.80
2006,08,15,12,15,13.90
2006,08,15,12,16,14.00
2006,08,15,12,17,14.00
2006,08,15,12,18,14.00
2006,08,15,12,19,13.90
2006,08,15,12,20,13.90
2006,08,15,12,21,14.00
2006,08,15,12,22,14.00
2006,08,15,12,23,14.00
2006,08,15,12,24,13.90
2006,08,15,12,25,14.00
2006,08,15,12,26,14.10
2006,08,15,12,27,14.10
2006,08,15,12,28,14.00
2006,08,15,12,29,14.00
2006,08,15,12,30,14.00
2006,08,15,12,31,14.10
2006,08,15,12,32,14.20
2006,08,15,12,33,14.30
2006,08,15,12,34,14.30
2006,08,15,12,35,14.40
2006,08,15,12,36,14.40
2006,08,15,12,37,14.40
2006,08,15,12,38,14.40
2006,08,15,12,39,14.40
2006,08,15,12,40,14.50
2006,08,15,12,41,14.60
2006,08,15,12,42,14.70
2006,08,15,12,43,14.80
2006,08,15,12,44,14.80
2006,08,15,12,45,14.80
2006,08,15,12,46,14.80
2006,08,15,12,47,14.80
2006,08,15,12,48,14.80
2006,08,15,12,49,14.70
2006,08,15,12,50,14.70
2006,08,15,12,51,14.70
2006,08,15,12,52,14.70
2006,08,15,12,53,14.80
2006,08,15,12,54,14.90
2006,08,15,12,55,15.00
2006,08,15,12,56,15.00
2006,08,15,12,57,15.00
2006,08,15,12,58,15.00
2006,08,15,12,59,15.00
2006,08,15,13,00,15.00
2006,08,15,13,01,15.00
2006,08,15,13,02,15.00
2006,08,15,13,03,15.10
2006,08,15,13,04,15.10
2006,08,15,13,05,15.00
2006,08,15,13,06,15.00
2006,08,15,13,07,14.90
2006,08,15,13,08,14.90
2006,08,15,13,09,14.90
2006,08,15,13,10,14.90
2006,08,15,13,11,14.90
2006,08,15,13,12,14.90
2006,08,15,13,13,14.80
2006,08,15,13,14,14.80
2006,08,15,13,15,14.70
2006,08,15,13,16,14.60
2006,08,15,13,17,14.50
2006,08,15,13,18,14.50
2006,08,15,13,19,14.40
2006,08,15,13,20,14.50
2006,08,15,13,21,14.60
2006,08,15,13,22,14.70
2006,08,15,13,23,14.70
2006,08,15,13,24,14.80
2006,08,15,13,25,14.80
2006,08,15,13,26,14.70
2006,08,15,13,27,14.70
2006,08,15,13,28,14.70
2006,08,15,13,29,14.60
2006,08,15,13,30,14.50
2006,08,15,13,31,14.50
2006,08,15,13,32,14.60
2006,08,15,13,33,14.60
2006,08,15,13,34,14.50
2006,08,15,13,35,14.60
2006,08,15,13,36,14.70
2006,08,15,13,37,14.80
2006,08,15,13,38,14.80
2006,08,15,13,39,14.80
2006,08,15,13,40,14.70
2006,08,15,13,41,14.60
2006,08,15,13,42,14.60
2006,08,15,13,43,14.70
2006,08,15,13,44,14.80
2006,08,15,13,45,14.80
2006,08,15,13,46,15.00
2006,08,15,13,47,15.20
2006,08,15,13,48,15.30
2006,08,15,13,49,15.50
2006,08,15,13,50,15.60
2006,08,15,13,51,15.70
2006,08,15,13,52,15.80
2006,08,15,13,53,15.90
2006,08,15,13,54,16.10
2006,08,15,13,55,16.10
2006,08,15,13,56,16.10
2006,08,15,13,57,16.10
2006,08,15,13,58,16.20
2006,08,15,13,59,16.20
2006,08,15,14,00,16.10
2006,08,15,14,01,16.20
2006,08,15,14,02,16.20
2006,08,15,14,03,16.10
2006,08,15,14,04,16.10
2006,08,15,14,05,16.10
2006,08,15,14,06,16.00
2006,08,15,14,07,15.80
2006,08,15,14,08,15.90
2006,08,15,14,09,15.90
2006,08,15,14,10,15.80
2006,08,15,14,11,15.80
2006,08,15,14,12,15.80
2006,08,15,14,13,15.80
2006,08,15,14,14,15.80
2006,08,15,14,15,15.80
2006,08,15,14,16,15.90
2006,08,15,14,17,16.00
2006,08,15,14,18,16.10
2006,08,15,14,19,16.20
2006,08,15,14,20,16.30
2006,08,15,14,21,16.40
2006,08,15,14,22,16.40
2006,08,15,14,23,16.40
2006,08,15,14,24,16.60
2006,08,15,14,25,16.50
2006,08,15,14,26,16.40
2006,08,15,14,27,16.40
2006,08,15,14,28,16.30
2006,08,15,14,29,16.30
2006,08,15,14,30,16.40
2006,08,15,14,31,16.50
2006,08,15,14,32,16.40
2006,08,15,14,33,16.30
2006,08,15,14,34,16.20
2006,08,15,14,35,16.10
2006,08,15,14,36,16.00
2006,08,15,14,37,15.90
2006,08,15,14,38,15.80
2006,08,15,14,39,15.80
2006,08,15,14,40,15.80
2006,08,15,14,41,15.80
2006,08,15,14,42,15.80
2006,08,15,14,43,15.80
2006,08,15,14,44,15.80
2006,08,15,14,45,15.80
2006,08,15,14,46,15.90
2006,08,15,14,47,16.00
2006,08,15,14,48,16.10
2006,08,15,14,49,16.10
2006,08,15,14,50,16.20
2006,08,15,14,51,16.20
2006,08,15,14,52,16.20
2006,08,15,14,53,16.30
2006,08,15,14,54,16.30
2006,08,15,14,55,16.40
2006,08,15,14,56,16.40
2006,08,15,14,57,16.50
2006,08,15,14,58,16.50
2006,08,15,14,59,16.40
2006,08,15,15,00,16.40
2006,08,15,15,01,16.60
2006,08,15,15,02,16.70
2006,08,15,15,03,16.90
2006,08,15,15,04,17.00
2006,08,15,15,05,17.00
2006,08,15,15,06,16.90
2006,08,15,15,07,16.80
2006,08,15,15,08,16.80
2006,08,15,15,09,16.70
2006,08,15,15,10,16.80
2006,08,15,15,11,16.90
2006,08,15,15,12,17.00
2006,08,15,15,13,17.00
2006,08,15,15,14,16.90
2006,08,15,15,15,16.90
2006,08,15,15,16,16.80
2006,08,15,15,17,16.70
2006,08,15,15,18,16.70
2006,08,15,15,19,16.70
2006,08,15,15,20,16.70
2006,08,15,15,21,16.70
2006,08,15,15,22,16.70
2006,08,15,15,23,16.70
2006,08,15,15,24,16.60
2006,08,15,15,25,16.40
2006,08,15,15,26,16.40
2006,08,15,15,27,16.40
2006,08,15,15,28,16.40
2006,08,15,15,29,16.40
2006,08,15,15,30,16.50
2006,08,15,15,31,16.60
2006,08,15,15,32,16.70
2006,08,15,15,33,16.70
2006,08,15,15,34,16.60
2006,08,15,15,35,16.60
2006,08,15,15,36,16.50
2006,08,15,15,37,16.40
2006,08,15,15,38,16.40
2006,08,15,15,39,16.40
2006,08,15,15,40,16.40
2006,08,15,15,41,16.40
2006,08,15,15,42,16.50
2006,08,15,15,43,16.60
2006,08,15,15,44,16.60
2006,08,15,15,45,16.70
2006,08,15,15,46,16.70
2006,08,15,15,47,16.70
2006,08,15,15,48,16.60
2006,08,15,15,49,16.60
2006,08,15,15,50,16.60
2006,08,15,15,51,16.60
2006,08,15,15,52,16.70
2006,08,15,15,53,16.70
2006,08,15,15,54,16.70
2006,08,15,15,55,16.70
2006,08,15,15,56,16.70
2006,08,15,15,57,16.70
2006,08,15,15,58,16.80
2006,08,15,15,59,16.90
2006,08,15,16,00,16.90
2006,08,15,16,01,17.00
2006,08,15,16,02,17.10
2006,08,15,16,03,17.20
2006,08,15,16,04,17.00
2006,08,15,16,05,16.90
2006,08,15,16,06,16.70
2006,08,15,16,07,16.50
2006,08,15,16,08,16.40
2006,08,15,16,09,16.40
2006,08,15,16,10,16.40
2006,08,15,16,11,16.50
2006,08,15,16,12,16.60
2006,08,15,16,13,16.60
2006,08,15,16,14,16.70
2006,08,15,16,15,16.70
2006,08,15,16,16,16.70
2006,08,15,16,17,16.70
2006,08,15,16,18,16.70
2006,08,15,16,19,16.70
2006,08,15,16,20,16.80
2006,08,15,16,21,16.90
2006,08,15,16,22,16.90
2006,08,15,16,23,17.00
2006,08,15,16,24,17.10
2006,08,15,16,25,17.10
2006,08,15,16,26,17.10
2006,08,15,16,27,17.00
2006,08,15,16,28,16.90
2006,08,15,16,29,16.90
2006,08,15,16,30,16.80
2006,08,15,16,31,16.70
2006,08,15,16,32,16.70
2006,08,15,16,33,16.80
2006,08,15,16,34,16.80
2006,08,15,16,35,16.70
2006,08,15,16,36,16.80
2006,08,15,16,37,16.80
2006,08,15,16,38,16.90
2006,08,15,16,39,17.00
2006,08,15,16,40,17.00
2006,08,15,16,41,17.10
2006,08,15,16,42,17.20
2006,08,15,16,43,17.30
2006,08,15,16,44,17.40
2006,08,15,16,45,17.40
2006,08,15,16,46,17.50
2006,08,15,16,47,17.60
2006,08,15,16,48,17.60
2006,08,15,16,49,17.70
2006,08,15,16,50,17.70
2006,08,15,16,51,17.80
2006,08,15,16,52,17.90
2006,08,15,16,53,17.90
2006,08,15,16,54,17.90
2006,08,15,16,55,17.90
2006,08,15,16,56,17.90
2006,08,15,16,57,17.90
2006,08,15,16,58,17.90
2006,08,15,16,59,17.70
2006,08,15,17,00,17.60
2006,08,15,17,01,17.50
2006,08,15,17,02,17.50
2006,08,15,17,03,17.50
2006,08,15,17,04,17.40
2006,08,15,17,05,17.20
2006,08,15,17,06,17.00
2006,08,15,17,07,16.70
2006,08,15,17,08,16.40
2006,08,15,17,09,16.20
2006,08,15,17,10,16.10
2006,08,15,17,11,16.10
2006,08,15,17,12,16.10
2006,08,15,17,13,16.20
2006,08,15,17,14,16.20
2006,08,15,17,15,16.30
2006,08,15,17,16,16.40
2006,08,15,17,17,16.50
2006,08,15,17,18,16.60
2006,08,15,17,19,16.60
2006,08,15,17,20,16.60
2006,08,15,17,21,16.70
2006,08,15,17,22,16.70
2006,08,15,17,23,16.70
2006,08,15,17,24,16.70
2006,08,15,17,25,16.80
2006,08,15,17,26,16.80
2006,08,15,17,27,16.70
2006,08,15,17,28,16.70
2006,08,15,17,29,16.70
2006,08,15,17,30,16.70
2006,08,15,17,31,16.70
2006,08,15,17,32,16.70
2006,08,15,17,33,16.80
2006,08,15,17,34,16.80
2006,08,15,17,35,16.80
2006,08,15,17,36,16.90
2006,08,15,17,37,16.90
2006,08,15,17,38,16.90
2006,08,15,17,39,17.00
2006,08,15,17,40,17.00
2006,08,15,17,41,17.10
2006,08,15,17,42,17.10
2006,08,15,17,43,17.10
2006,08,15,17,44,17.20
2006,08,15,17,45,17.30
2006,08,15,17,46,17.50
2006,08,15,17,47,17.70
2006,08,15,17,48,17.80
2006,08,15,17,49,17.90
2006,08,15,17,50,18.10
2006,08,15,17,51,18.30
2006,08,15,17,52,18.50
2006,08,15,17,53,18.60
2006,08,15,17,54,18.80
2006,08,15,17,55,18.90
2006,08,15,17,56,19.00
2006,08,15,17,57,19.10
2006,08,15,17,58,19.10
2006,08,15,17,59,19.10
2006,08,15,18,00,19.20
2006,08,15,18,01,19.30
2006,08,15,18,02,19.40
2006,08,15,18,03,19.60
2006,08,15,18,04,19.70
2006,08,15,18,05,19.80
2006,08,15,18,06,19.90
2006,08,15,18,07,20.10
2006,08,15,18,08,20.20
2006,08,15,18,09,20.20
2006,08,15,18,10,20.30
2006,08,15,18,11,20.40
2006,08,15,18,12,20.50
2006,08,15,18,13,20.50
2006,08,15,18,14,20.60
2006,08,15,18,15,20.60
2006,08,15,18,16,20.50
2006,08,15,18,17,20.40
2006,08,15,18,18,20.40
2006,08,15,18,19,20.40
2006,08,15,18,20,20.50
2006,08,15,18,21,20.50
2006,08,15,18,22,20.50
2006,08,15,18,23,20.40
2006,08,15,18,24,20.30
2006,08,15,18,25,20.30
2006,08,15,18,26,20.30
2006,08,15,18,27,20.30
2006,08,15,18,28,20.40
2006,08,15,18,29,20.40
2006,08,15,18,30,20.40
2006,08,15,18,31,20.50
2006,08,15,18,32,20.50
2006,08,15,18,33,20.50
2006,08,15,18,34,20.40
2006,08,15,18,35,20.40
2006,08,15,18,36,20.40
2006,08,15,18,37,20.40
2006,08,15,18,38,20.40
2006,08,15,18,39,20.30
2006,08,15,18,40,20.40
2006,08,15,18,41,20.40
2006,08,15,18,42,20.40
2006,08,15,18,43,20.40
2006,08,15,18,44,20.40
2006,08,15,18,45,20.30
2006,08,15,18,46,20.30
2006,08,15,18,47,20.30
2006,08,15,18,48,20.20
2006,08,15,18,49,20.20
2006,08,15,18,50,20.20
2006,08,15,18,51,20.10
2006,08,15,18,52,20.10
2006,08,15,18,53,20.00
2006,08,15,18,54,19.90
2006,08,15,18,55,19.90
2006,08,15,18,56,19.90
2006,08,15,18,57,19.90
2006,08,15,18,58,19.90
2006,08,15,18,59,19.90
2006,08,15,19,00,20.10
2006,08,15,19,01,20.10
2006,08,15,19,02,20.10
2006,08,15,19,03,20.10
2006,08,15,19,04,19.90
2006,08,15,19,05,19.90
2006,08,15,19,06,19.90
2006,08,15,19,07,19.90
2006,08,15,19,08,19.80
2006,08,15,19,09,19.80
2006,08,15,19,10,19.70
2006,08,15,19,11,19.60
2006,08,15,19,12,19.50
2006,08,15,19,13,19.50
2006,08,15,19,14,19.40
2006,08,15,19,15,19.40
2006,08,15,19,16,19.30
2006,08,15,19,17,19.30
2006,08,15,19,18,19.30
2006,08,15,19,19,19.30
2006,08,15,19,20,19.30
2006,08,15,19,21,19.30
2006,08,15,19,22,19.30
2006,08,15,19,23,19.20
2006,08,15,19,24,19.20
2006,08,15,19,25,19.20
2006,08,15,19,26,19.20
2006,08,15,19,27,19.10
2006,08,15,19,28,19.10
2006,08,15,19,29,19.10
2006,08,15,19,30,19.10
2006,08,15,19,31,19.10
2006,08,15,19,32,19.10
2006,08,15,19,33,19.10
2006,08,15,19,34,19.10
2006,08,15,19,35,19.10
2006,08,15,19,36,19.10
2006,08,15,19,37,19.10
2006,08,15,19,38,19.00
2006,08,15,19,39,18.90
2006,08,15,19,40,18.90
2006,08,15,19,41,18.90
2006,08,15,19,42,18.90
2006,08,15,19,43,18.90
2006,08,15,19,44,18.90
2006,08,15,19,45,18.90
2006,08,15,19,46,18.90
2006,08,15,19,47,18.80
2006,08,15,19,48,18.80
2006,08,15,19,49,18.80
2006,08,15,19,50,18.80
2006,08,15,19,51,18.80
2006,08,15,19,52,18.80
2006,08,15,19,53,18.80
2006,08,15,19,54,18.70
2006,08,15,19,55,18.70
2006,08,15,19,56,18.70
2006,08,15,19,57,18.70
2006,08,15,19,58,18.60
2006,08,15,19,59,18.60
2006,08,15,20,00,18.60
2006,08,15,20,01,18.60
2006,08,15,20,02,18.50
2006,08,15,20,03,18.50
2006,08,15,20,04,18.50